{"data":{"norad_id":60032,"epoch":"2026-09-21T08:28:33.555360Z","epoch_age_seconds":104483,"freshness":"FRESH","line1":"1 60032U 24111S   26264.35316615 -.00000025  00000+0  10401-4 0  9997","line2":"2 60032  53.1604 245.8738 0001182  82.5404 277.5733 15.34404251129009","mean_motion":15.34404251,"eccentricity":0.0001182,"inclination_deg":53.1604,"raan_deg":245.8738,"arg_perigee_deg":82.5404,"mean_anomaly_deg":277.5733,"bstar":1.0401e-5,"rev_number":12900,"period_min":93.847498080217,"perigee_km":461.88201954546,"apogee_km":463.49919119137,"semimajor_km":6840.8276053684,"source":"CELESTRAK","updated_at":"2026-09-22T09:00:49.140481Z"}}